Flag for France Weather past 2 weeks in Villeurbanne, France

Now
75 °F

Clear.


Feels Like: 78 °F
Forecast: 68 / 91 °F
Wind: 3 mph from North

Location: Lyon / Bron

Current Time: Aug 29, 2015 at 12:52:25 AM

Latest Report: Aug 29, 2015 at 12:00 AM


Visibility: 10 mi

Pressure: 30.12 "Hg

Humidity: 54%

Dew point: 57 °F

Location of VilleurbanneLocation

Historic Weather in Villeurbanne — Graph

°F

Villeurbanne temperature yesterday

Maximum temperature yesterday: 93 °F (at 3:30 PM)
Minimum temperature yesterday: 72 °F (at 6:00 AM)
Average temperature yesterday: 81 °F

Past Weeks' High & Low Weather Summary

 TemperatureHumidityPressure
High93 °F (Aug 28, 3:30 PM)94% (Aug 14, 2:30 AM)30.21 "Hg (Aug 14, 2:30 AM)
Low52 °F (Aug 26, 7:00 AM)22% (Aug 27, 4:30 PM)29.68 "Hg (Aug 24, 4:00 AM)
Average71 °F53%29.99 "Hg
* Reported Aug 13 11:00 PM — Aug 28 11:00 PM, Villeurbanne, Weather by CustomWeather, © 2015

Note: Actual official high and low records may vary slightly from our data, if they occured in-between our weather recording intervals... More about our weather records

Advertising

Villeurbanne weather history for previous 24 hours

 ConditionsComfort  
Time TempWeatherWind HumidityBarometerVisibility
11:00 PM
Fri, Aug 28
77 °FClear.No wind47%30.09 "Hg10 mi
10:30 PM79 °FPassing clouds.6 mph45%30.09 "HgN/A
10:00 PM81 °FPassing clouds.5 mph42%30.09 "HgN/A
9:30 PM81 °FClear.8 mph42%30.07 "Hg10 mi
9:00 PM82 °FSunny.8 mph40%30.07 "Hg10 mi
8:30 PM84 °FSunny.7 mph37%30.07 "Hg10 mi
8:00 PM86 °FSunny.6 mph35%30.07 "Hg10 mi
7:30 PM88 °FSunny.9 mph33%30.07 "Hg10 mi
7:00 PM90 °FSunny.12 mph29%30.07 "Hg10 mi
6:30 PM90 °FSunny.13 mph29%30.04 "Hg10 mi
6:00 PM91 °FSunny.10 mph28%30.04 "Hg10 mi
5:30 PM91 °FHot.13 mph30%30.04 "HgN/A
5:00 PM93 °FExtremely hot.12 mph28%30.04 "HgN/A
4:30 PM91 °FPassing clouds.9 mph28%30.07 "HgN/A
4:00 PM91 °FPassing clouds.12 mph30%30.07 "HgN/A
3:30 PM93 °FPassing clouds.8 mph28%30.07 "HgN/A
3:00 PM91 °FPassing clouds.9 mph30%30.07 "HgN/A
2:30 PM91 °FPassing clouds.10 mph28%30.07 "HgN/A
2:00 PM90 °FPassing clouds.9 mph29%30.07 "HgN/A
1:30 PM90 °FPassing clouds.9 mph29%30.07 "HgN/A
1:00 PM88 °FPassing clouds.13 mph31%30.07 "HgN/A
12:30 PM88 °FSunny.14 mph31%30.07 "Hg10 mi
12:00 PM86 °FPassing clouds.16 mph31%30.07 "HgN/A
11:30 AM84 °FSunny.14 mph33%30.07 "Hg10 mi
11:00 AM82 °FPassing clouds.14 mph40%30.07 "HgN/A
10:30 AM81 °FPassing clouds.9 mph39%30.07 "HgN/A
10:00 AM81 °FPassing clouds.10 mph39%30.07 "HgN/A
9:30 AM79 °FPassing clouds.12 mph42%30.07 "HgN/A
9:00 AM77 °FSunny.12 mph47%30.07 "Hg10 mi
8:30 AM75 °FPassing clouds.6 mph54%30.07 "HgN/A
8:00 AM73 °FSunny.6 mph57%30.04 "Hg10 mi
7:30 AM72 °FClear.8 mph61%30.04 "Hg10 mi
7:00 AM72 °FPassing clouds.7 mph61%30.04 "HgN/A
6:30 AM72 °FClear.13 mph61%30.01 "Hg10 mi
6:00 AM72 °FClear.15 mph65%30.01 "Hg10 mi
5:30 AM73 °FClear.16 mph57%30.01 "Hg10 mi
5:00 AM73 °FClear.17 mph61%30.01 "Hg10 mi
4:30 AM73 °FClear.17 mph61%30.01 "Hg10 mi
4:00 AM73 °FClear.14 mph61%30.01 "Hg10 mi
3:30 AM73 °FClear.13 mph61%30.01 "Hg10 mi
3:00 AM73 °FClear.12 mph61%30.01 "Hg10 mi
2:30 AM75 °FClear.12 mph57%30.01 "Hg10 mi
2:00 AM75 °FPassing clouds.12 mph57%30.01 "HgN/A
1:30 AM75 °FClear.16 mph57%30.01 "Hg10 mi
1:00 AM75 °FClear.12 mph57%30.01 "Hg10 mi
12:30 AM75 °FClear.14 mph54%30.01 "Hg10 mi
12:00 AM75 °FClear.17 mph54%29.98 "Hg10 mi
Weather by CustomWeather, © 2015

See weather overviewHow to use our weather pages